This is the latest recevied weather packets stored in our database for station/object KA1JKB. If no packets are shown the sender has not sent any weather packets the latest 10 day(s).
| Time | Temp. | Humidity | Pressure | Rain* | Wind** | Luminosity | Snow |
|---|---|---|---|---|---|---|---|
| 1787676896 | 25.56° C | 64% | 1017.8 hPa | 0 mm | - | 398 W/m² | - |
| 1787676596 | 25° C | 67% | 1017.9 hPa | 0 mm | - | 811 W/m² | - |
| 1787676293 | 25° C | 68% | 1018.1 hPa | 0 mm | - | 865 W/m² | - |
| 1787675988 | 25.56° C | 66% | 1017.8 hPa | 0 mm | - | 529 W/m² | - |
| 1787675684 | 25° C | 68% | 1018.1 hPa | 0 mm | - | 848 W/m² | - |
| 1787675383 | 23.89° C | 68% | 1018.1 hPa | 0 mm | - | 843 W/m² | - |
| 1787675078 | 23.89° C | 69% | 1017.9 hPa | 0 mm | - | 832 W/m² | - |
| 1787674772 | 23.89° C | 68% | 1018.1 hPa | 0 mm | - | 828 W/m² | - |
| 1787674468 | 23.89° C | 71% | 1018.1 hPa | 0 mm | - | 787 W/m² | - |
| 1787674169 | 22.78° C | 68% | 1018.3 hPa | 0 mm | - | 861 W/m² | - |
| 1787673863 | 23.33° C | 69% | 1018.2 hPa | 0 mm | - | 832 W/m² | - |
| 1787673559 | 23.89° C | 67% | 1018.3 hPa | 0 mm | - | 852 W/m² | - |
| 1787673258 | 23.89° C | 70% | 1018.5 hPa | 0 mm | - | 829 W/m² | - |
| 1787672958 | 23.89° C | 69% | 1018.7 hPa | 0 mm | - | 833 W/m² | - |
| 1787672654 | 24.44° C | 68% | 1018.6 hPa | 0 mm | - | 895 W/m² | - |
| 1787672353 | 24.44° C | 70% | 1018.9 hPa | 0 mm | - | 899 W/m² | - |
| 1787672049 | 23.33° C | 70% | 1018.8 hPa | 0 mm | - | 851 W/m² | - |
| 1787671748 | 23.89° C | 71% | 1018.6 hPa | 0 mm | - | 819 W/m² | - |
| 1787671448 | 23.89° C | 69% | 1018.8 hPa | 0 mm | - | 793 W/m² | - |
| 1787671143 | 22.78° C | 75% | 1018.8 hPa | 0 mm | - | 794 W/m² | - |
| 1787670839 | 22.78° C | 75% | 1018.7 hPa | 0 mm | - | 785 W/m² | - |
| 1787670534 | 22.78° C | 77% | 1018.9 hPa | 0 mm | - | 747 W/m² | - |
| 1787670228 | 22.78° C | 73% | 1018.8 hPa | 0 mm | - | 721 W/m² | - |
| 1787669928 | 22.78° C | 74% | 1018.8 hPa | 0 mm | - | 723 W/m² | - |
| 1787669623 | 22.22° C | 76% | 1018.9 hPa | 0 mm | - | 675 W/m² | - |
* Rain latest hour (hover to see other rain measurements)
** Current wind speed in m/s (hover to see current wind gust speed)